When you browse on this site, cookies collect data to enhance your experience and personalize the content and advertising you see.
Visit our Privacy Policy to learn more. By continuing to use the site, you agree to this use of cookies and data.
  • In Switzerland
  • List of Countries
  • For 7 days
  • Water Temperature
  • Satellite Maps
  • Weather Map
  • Weather Widgets
  • user-avatar
    Login

    Hourly Weather Nakuru

    Today, 20 January, Sunday

    Time Temperature Precipitation Wind Pressure Humidity
    00:00 +16°C° 0.1 mm 1 mps 605 mmHg 80%
    01:00 +16°C° 0.1 mm 1 mps 605 mmHg 82%
    02:00 +16°C° 0.1 mm 1 mps 605 mmHg 83%
    03:00 +15°C° 0 mm 1 mps 605 mmHg 84%
    04:00 +15°C° 0 mm 1 mps 605 mmHg 85%
    05:00 +14°C° 0 mm 1 mps 605 mmHg 86%
    06:00 +16°C° 0 mm 1 mps 606 mmHg 76%
    07:00 +19°C° 0 mm 1 mps 607 mmHg 66%
    08:00 +21°C° 0 mm 1 mps 608 mmHg 56%
    09:00 +21°C° 0 mm 2 mps 608 mmHg 50%
    10:00 +24°C° 0 mm 3 mps 608 mmHg 43%
    11:00 +26°C° 0 mm 3 mps 609 mmHg 37%
    12:00 +27°C° 0 mm 4 mps 608 mmHg 35%
    13:00 +28°C° 0 mm 4 mps 608 mmHg 33%
    14:00 +28°C° 0 mm 4 mps 608 mmHg 30%
    15:00 +27°C° 0 mm 4 mps 607 mmHg 32%
    16:00 +26°C° 0 mm 4 mps 607 mmHg 34%
    17:00 +25°C° 0 mm 3 mps 606 mmHg 35%
    18:00 +22°C° 0 mm 3 mps 606 mmHg 40%
    19:00 +19°C° 0 mm 2 mps 606 mmHg 46%
    20:00 +18°C° 0 mm 1 mps 605 mmHg 51%
    21:00 +16°C° 0 mm 1 mps 605 mmHg 53%
    22:00 +16°C° 0 mm 1 mps 605 mmHg 55%
    23:00 +15°C° 0 mm 1 mps 606 mmHg 58%

    Tomorrow, 21 January, Monday

    Time Temperature Precipitation Wind Pressure Humidity
    00:00 +14°C° 0 mm 1 mps 605 mmHg 59%
    01:00 +14°C° 0 mm 1 mps 605 mmHg 60%
    02:00 +14°C° 0 mm 1 mps 604 mmHg 61%
    03:00 +13°C° 0 mm 1 mps 605 mmHg 63%
    04:00 +13°C° 0 mm 1 mps 605 mmHg 64%
    05:00 +13°C° 0 mm 1 mps 605 mmHg 66%
    06:00 +15°C° 0 mm 1 mps 606 mmHg 58%
    07:00 +19°C° 0 mm 1 mps 607 mmHg 50%
    08:00 +21°C° 0 mm 1 mps 608 mmHg 41%
    09:00 +23°C° 0 mm 2 mps 608 mmHg 37%
    10:00 +25°C° 0 mm 3 mps 609 mmHg 33%
    11:00 +26°C° 0 mm 4 mps 609 mmHg 28%
    12:00 +27°C° 0 mm 4 mps 608 mmHg 28%
    13:00 +27°C° 0 mm 4 mps 608 mmHg 27%
    14:00 +28°C° 0 mm 4 mps 607 mmHg 27%
    15:00 +27°C° 0 mm 4 mps 607 mmHg 30%
    16:00 +26°C° 0 mm 3 mps 606 mmHg 33%
    17:00 +24°C° 0 mm 3 mps 606 mmHg 36%
    18:00 +21°C° 0 mm 2 mps 606 mmHg 40%
    19:00 +21°C° 0 mm 1 mps 606 mmHg 44%
    20:00 +17°C° 0 mm 0 mps 606 mmHg 48%
    21:00 +18°C° 0 mm 1 mps 606 mmHg 51%
    22:00 +16°C° 0 mm 1 mps 606 mmHg 55%
    23:00 +15°C° 0 mm 1 mps 606 mmHg 58%

    Day after tomorrow, 22 January, Tuesday

    Time Temperature Precipitation Wind Pressure Humidity
    00:00 +14°C° 0 mm 1 mps 605 mmHg 60%
    01:00 +14°C° 0 mm 1 mps 605 mmHg 61%
    02:00 +14°C° 0 mm 1 mps 604 mmHg 63%
    03:00 +13°C° 0 mm 1 mps 604 mmHg 65%
    04:00 +13°C° 0 mm 1 mps 604 mmHg 67%
    05:00 +13°C° 0 mm 1 mps 604 mmHg 70%
    06:00 +15°C° 0 mm 1 mps 605 mmHg 62%
    07:00 +19°C° 0 mm 1 mps 606 mmHg 54%
    08:00 +20°C° 0 mm 2 mps 608 mmHg 47%
    09:00 +23°C° 0 mm 2 mps 608 mmHg 42%
    10:00 +25°C° 0 mm 3 mps 608 mmHg 37%
    11:00 +26°C° 0 mm 4 mps 608 mmHg 32%
    12:00 +27°C° 0 mm 4 mps 608 mmHg 30%
    13:00 +27°C° 0 mm 4 mps 607 mmHg 29%
    14:00 +28°C° 0 mm 4 mps 606 mmHg 27%
    15:00 +27°C° 0 mm 3 mps 606 mmHg 30%
    16:00 +26°C° 0 mm 3 mps 606 mmHg 32%
    17:00 +25°C° 0 mm 3 mps 605 mmHg 34%
    18:00 +23°C° 0 mm 2 mps 605 mmHg 39%
    19:00 +21°C° 0 mm 1 mps 605 mmHg 44%
    20:00 +18°C° 0 mm 1 mps 605 mmHg 49%
    21:00 +18°C° 0 mm 1 mps 605 mmHg 54%
    22:00 +16°C° 0 mm 1 mps 605 mmHg 58%
    23:00 +15°C° 0 mm 1 mps 605 mmHg 63%

    23 January, Wednesday

    Time Temperature Precipitation Wind Pressure Humidity
    00:00 +15°C° 0 mm 1 mps 604 mmHg 66%
    01:00 +14°C° 0 mm 1 mps 604 mmHg 69%
    02:00 +14°C° 0 mm 1 mps 603 mmHg 72%
    03:00 +14°C° 0 mm 1 mps 603 mmHg 74%
    04:00 +14°C° 0 mm 1 mps 603 mmHg 75%
    05:00 +13°C° 0 mm 1 mps 603 mmHg 77%
    06:00 +15°C° 0 mm 1 mps 605 mmHg 69%
    07:00 +19°C° 0 mm 1 mps 606 mmHg 60%
    08:00 +21°C° 0 mm 1 mps 607 mmHg 52%
    09:00 +23°C° 0 mm 2 mps 607 mmHg 45%
    10:00 +24°C° 0 mm 3 mps 607 mmHg 39%
    11:00 +26°C° 0 mm 3 mps 608 mmHg 33%
    12:00 +27°C° 0 mm 4 mps 607 mmHg 31%
    13:00 +28°C° 0 mm 4 mps 607 mmHg 29%
    14:00 +28°C° 0 mm 4 mps 606 mmHg 27%
    15:00 +27°C° 0 mm 4 mps 606 mmHg 30%
    16:00 +26°C° 0 mm 4 mps 606 mmHg 33%
    17:00 +25°C° 0 mm 4 mps 606 mmHg 36%
    18:00 +22°C° 0 mm 3 mps 605 mmHg 43%
    19:00 +20°C° 0 mm 2 mps 605 mmHg 49%
    20:00 +18°C° 0 mm 1 mps 605 mmHg 56%
    21:00 +18°C° 0 mm 1 mps 605 mmHg 60%
    22:00 +16°C° 0 mm 1 mps 605 mmHg 63%
    23:00 +15°C° 0 mm 1 mps 605 mmHg 67%

    24 January, Thursday

    Time Temperature Precipitation Wind Pressure Humidity
    00:00 +15°C° 0 mm 1 mps 605 mmHg 69%
    01:00 +14°C° 0 mm 1 mps 604 mmHg 70%
    02:00 +14°C° 0 mm 1 mps 604 mmHg 72%
    03:00 +13°C° 0 mm 1 mps 604 mmHg 70%
    04:00 +13°C° 0 mm 1 mps 604 mmHg 69%
    05:00 +13°C° 0 mm 1 mps 604 mmHg 68%
    06:00 +15°C° 0 mm 1 mps 605 mmHg 59%
    07:00 +18°C° 0 mm 1 mps 606 mmHg 51%
    08:00 +20°C° 0 mm 1 mps 607 mmHg 42%
    09:00 +21°C° 0 mm 2 mps 607 mmHg 36%
    10:00 +25°C° 0 mm 3 mps 608 mmHg 30%
    11:00 +27°C° 0 mm 4 mps 608 mmHg 24%
    12:00 +27°C° 0 mm 4 mps 608 mmHg 23%
    13:00 +28°C° 0 mm 4 mps 607 mmHg 22%
    14:00 +29°C° 0 mm 4 mps 607 mmHg 22%
    15:00 +27°C° 0 mm 5 mps 606 mmHg 24%
    16:00 +26°C° 0 mm 5 mps 606 mmHg 27%
    17:00 +25°C° 0 mm 5 mps 606 mmHg 30%
    18:00 +21°C° 0 mm 4 mps 606 mmHg 38%
    19:00 +19°C° 0 mm 3 mps 606 mmHg 47%
    20:00 +17°C° 0 mm 2 mps 605 mmHg 56%
    21:00 +16°C° 0 mm 1 mps 605 mmHg 61%
    22:00 +15°C° 0 mm 1 mps 605 mmHg 65%
    23:00 +14°C° 0 mm 1 mps 605 mmHg 70%

    25 January, Friday

    Time Temperature Precipitation Wind Pressure Humidity
    00:00 +14°C° 0 mm 1 mps 605 mmHg 73%
    01:00 +13°C° 0 mm 1 mps 604 mmHg 75%
    02:00 +13°C° 0 mm 1 mps 604 mmHg 77%
    03:00 +12°C° 0 mm 1 mps 604 mmHg 76%
    04:00 +12°C° 0 mm 1 mps 604 mmHg 76%
    05:00 +12°C° 0 mm 1 mps 604 mmHg 75%
    06:00 +14°C° 0 mm 1 mps 605 mmHg 65%
    07:00 +18°C° 0 mm 1 mps 607 mmHg 54%
    08:00 +21°C° 0 mm 1 mps 608 mmHg 44%
    09:00 +23°C° 0 mm 2 mps 608 mmHg 38%
    10:00 +25°C° 0 mm 2 mps 609 mmHg 32%
    11:00 +27°C° 0 mm 3 mps 609 mmHg 26%
    12:00 +27°C° 0 mm 3 mps 608 mmHg 26%
    13:00 +27°C° 0 mm 4 mps 608 mmHg 26%
    14:00 +27°C° 0 mm 4 mps 607 mmHg 25%
    15:00 +26°C° 0 mm 4 mps 607 mmHg 28%
    16:00 +25°C° 0 mm 4 mps 606 mmHg 30%
    17:00 +23°C° 0 mm 4 mps 606 mmHg 32%
    18:00 +21°C° 0 mm 3 mps 606 mmHg 40%
    19:00 +19°C° 0 mm 2 mps 606 mmHg 49%
    20:00 +16°C° 0 mm 2 mps 606 mmHg 57%
    21:00 +16°C° 0 mm 1 mps 606 mmHg 62%
    22:00 +15°C° 0 mm 1 mps 606 mmHg 67%
    23:00 +14°C° 0 mm 1 mps 605 mmHg 71%
    Show more